Cody, WY

6:56 PM MDT on April 28, 2017 (GMT -0600)
Yellowstone Regional

Weather History for KCOD - September, 2011

Change the Weather History Date:

Saturday, September 3, 2011

  Actual Average Record
Temperature  
Mean Temperature 53 °F -  
Max Temperature 64 °F 79 °F 95 °F (1950)
Min Temperature 42 °F 49 °F 32 °F (1918)
Degree Days  
Heating Degree Days 12    
Growing Degree Days 3 (Base 50)    
Moisture  
Dew Point 28 °F    
Average Humidity 38    
Maximum Humidity 50    
Minimum Humidity 28    
Precipitation  
Precipitation 0.00 in - - ()
Sea Level Pressure  
Sea Level Pressure 30.30 in    
Wind  
Wind Speed 7 mph (NNW)    
Max Wind Speed 12 mph    
Max Gust Speed 17 mph    
Visibility 10 miles    
Events      
Averages and records for this station are not official NWS values.
T = Trace of Precipitation, MM = Missing Value Source: NWS Daily Summary

Daily Weather History Graph

Daily Weather History Graph

Search for Another Location

Airport or City:

Trip Planner

Search our weather history database for the weather conditions in past years. The results will help you decide how hot, cold, wet, or windy it might be!

Date:

Astronomy

Sep. 03, 2011 Rise Set
Actual Time 6:40 AM MDT 7:49 PM MDT
Civil Twilight 6:10 AM MDT 8:19 PM MDT
Nautical Twilight 5:34 AM MDT 8:54 PM MDT
Astronomical Twilight 4:57 AM MDT 9:32 PM MDT
Moon 1:45 PM MDT (9/3) 10:56 PM MDT (9/3)
Length of Visible Light 14h 08m
Length of Day
13h 08m
Waxing Crescent, 39% of the Moon is Illuminated
Sep 3
Waxing Crescent
Sep 4
First Quarter
Sep 12
Full
Sep 20
Last Quarter
Sep 27
New

Hourly Weather History & Observations

Time (MDT) Temp. Windchill Dew Point Humidity Pressure Visibility Wind Dir Wind Speed Gust Speed Precip Events Conditions
12:15 AM 51.8 °F - 32.0 °F 47% 30.23 in 10.0 mi WNW 8.1 mph - N/A   Clear
12:55 AM 51.8 °F - 30.2 °F 44% 30.25 in 10.0 mi NW 8.1 mph - N/A   Clear
1:15 AM 50.0 °F - 30.2 °F 47% 30.25 in 10.0 mi NW 9.2 mph - N/A   Clear
1:35 AM 50.0 °F - 30.2 °F 47% 30.25 in 10.0 mi WNW 8.1 mph - N/A   Clear
1:55 AM 48.2 °F - 30.2 °F 50% 30.26 in 10.0 mi WNW 9.2 mph - N/A   Clear
2:15 AM 48.2 °F - 30.2 °F 50% 30.26 in 10.0 mi NW 9.2 mph - N/A   Clear
2:35 AM 48.2 °F - 28.4 °F 46% 30.27 in 10.0 mi NW 11.5 mph 17.3 mph N/A   Clear
2:55 AM 48.2 °F - 28.4 °F 46% 30.28 in 10.0 mi NW 11.5 mph 17.3 mph N/A   Clear
3:15 AM 48.2 °F - 28.4 °F 46% 30.29 in 10.0 mi WNW 10.4 mph - N/A   Clear
3:35 AM 48.2 °F - 26.6 °F 43% 30.29 in 10.0 mi WNW 10.4 mph - N/A   Clear
3:55 AM 46.4 °F 41.1 °F 26.6 °F 46% 30.29 in 10.0 mi WNW 11.5 mph - N/A   Clear
4:15 AM 46.4 °F 42.4 °F 26.6 °F 46% 30.30 in 10.0 mi WNW 8.1 mph - N/A   Clear
4:35 AM 46.4 °F 42.4 °F 26.6 °F 46% 30.30 in 10.0 mi WNW 8.1 mph - N/A   Clear
5:15 AM 46.4 °F 42.9 °F 24.8 °F 43% 30.31 in 10.0 mi WNW 6.9 mph - N/A   Clear
5:35 AM 46.4 °F 42.9 °F 24.8 °F 43% 30.32 in 10.0 mi WNW 6.9 mph - N/A   Clear
5:55 AM 46.4 °F 43.5 °F 24.8 °F 43% 30.32 in 10.0 mi WNW 5.8 mph - N/A   Clear
6:15 AM 46.4 °F 43.5 °F 24.8 °F 43% 30.33 in 10.0 mi WNW 5.8 mph - N/A   Clear
6:35 AM 44.6 °F - 24.8 °F 46% 30.33 in 10.0 mi Calm Calm - N/A   Clear
6:55 AM 44.6 °F 42.2 °F 24.8 °F 46% 30.33 in 10.0 mi WNW 4.6 mph - N/A   Clear
7:15 AM 42.8 °F - 24.8 °F 49% 30.33 in 10.0 mi Calm Calm - N/A   Clear
7:35 AM 44.6 °F - 24.8 °F 46% 30.34 in 10.0 mi Calm Calm - N/A   Clear
7:55 AM 46.4 °F - 26.6 °F 46% 30.34 in 10.0 mi Calm Calm - N/A   Clear
8:15 AM 48.2 °F - 26.6 °F 43% 30.35 in 10.0 mi Calm Calm - N/A   Clear
8:35 AM 50.0 °F - 26.6 °F 40% 30.35 in 10.0 mi Calm Calm - N/A   Clear
8:55 AM 50.0 °F - 26.6 °F 40% 30.34 in 10.0 mi North 3.5 mph - N/A   Clear
9:15 AM 51.8 °F - 26.6 °F 38% 30.34 in 10.0 mi NNW 3.5 mph - N/A   Clear
9:35 AM 51.8 °F - 26.6 °F 38% 30.34 in 10.0 mi NNE 3.5 mph - N/A   Clear
9:55 AM 53.6 °F - 28.4 °F 38% 30.34 in 10.0 mi North 6.9 mph - N/A   Clear
10:15 AM 53.6 °F - 28.4 °F 38% 30.34 in 10.0 mi WNW 5.8 mph - N/A   Clear
10:55 AM 55.4 °F - 28.4 °F 36% 30.34 in 10.0 mi North 9.2 mph - N/A   Clear
11:15 AM 55.4 °F - 28.4 °F 36% 30.34 in 10.0 mi NNE 8.1 mph - N/A   Clear
11:35 AM 57.2 °F - 28.4 °F 33% 30.33 in 10.0 mi North 10.4 mph - N/A   Clear
11:55 AM 57.2 °F - 28.4 °F 33% 30.33 in 10.0 mi NNE 10.4 mph 16.1 mph N/A   Clear
12:15 PM 59.0 °F - 30.2 °F 34% 30.33 in 10.0 mi NNE 10.4 mph - N/A   Clear
12:35 PM 57.2 °F - 30.2 °F 36% 30.32 in 10.0 mi North 9.2 mph 16.1 mph N/A   Clear
12:55 PM 59.0 °F - 28.4 °F 31% 30.31 in 10.0 mi North 6.9 mph - N/A   Clear
1:35 PM 60.8 °F - 28.4 °F 29% 30.30 in 10.0 mi NW 4.6 mph - N/A   Clear
1:55 PM 60.8 °F - 30.2 °F 31% 30.29 in 10.0 mi North 6.9 mph - N/A   Clear
2:15 PM 60.8 °F - 30.2 °F 31% 30.29 in 10.0 mi North 9.2 mph - N/A   Clear
2:55 PM 62.6 °F - 30.2 °F 30% 30.29 in 10.0 mi NNE 10.4 mph - N/A   Clear
3:15 PM 62.6 °F - 30.2 °F 30% 30.28 in 10.0 mi WNW 3.5 mph - N/A   Clear
3:35 PM 62.6 °F - 30.2 °F 30% 30.27 in 10.0 mi North 8.1 mph - N/A   Clear
3:55 PM 62.6 °F - 30.2 °F 30% 30.27 in 10.0 mi Calm Calm - N/A   Clear
4:15 PM 62.6 °F - 30.2 °F 30% 30.27 in 10.0 mi North 8.1 mph - N/A   Clear
4:35 PM 64.4 °F - 30.2 °F 28% 30.27 in 10.0 mi NNE 8.1 mph - N/A   Clear
4:55 PM 64.4 °F - 30.2 °F 28% 30.27 in 10.0 mi North 8.1 mph - N/A   Clear
5:15 PM 62.6 °F - 30.2 °F 30% 30.27 in 10.0 mi NNE 4.6 mph - N/A   Clear
5:35 PM 64.4 °F - 30.2 °F 28% 30.27 in 10.0 mi NNW 10.4 mph - N/A   Clear
5:55 PM 62.6 °F - 30.2 °F 30% 30.27 in 10.0 mi North 9.2 mph - N/A   Clear
6:15 PM 62.6 °F - 30.2 °F 30% 30.28 in 10.0 mi North 9.2 mph - N/A   Clear
6:55 PM 60.8 °F - 30.2 °F 31% 30.28 in 10.0 mi North 6.9 mph - N/A   Clear
7:15 PM 60.8 °F - 28.4 °F 29% 30.28 in 10.0 mi North 8.1 mph - N/A   Clear
7:35 PM 57.2 °F - 30.2 °F 36% 30.28 in 10.0 mi North 8.1 mph - N/A   Clear
7:55 PM 55.4 °F - 28.4 °F 36% 30.29 in 10.0 mi North 6.9 mph - N/A   Clear
8:15 PM 55.4 °F - 28.4 °F 36% 30.29 in 10.0 mi North 5.8 mph - N/A   Clear
8:35 PM 55.4 °F - 28.4 °F 36% 30.30 in 10.0 mi North 4.6 mph - N/A   Clear
8:55 PM 53.6 °F - 28.4 °F 38% 30.31 in 10.0 mi NW 4.6 mph - N/A   Clear
9:15 PM 53.6 °F - 28.4 °F 38% 30.32 in 10.0 mi WNW 4.6 mph - N/A   Clear
9:35 PM 53.6 °F - 26.6 °F 35% 30.33 in 10.0 mi WNW 3.5 mph - N/A   Clear
9:55 PM 51.8 °F - 26.6 °F 38% 30.33 in 10.0 mi WNW 5.8 mph - N/A   Clear
10:15 PM 51.8 °F - 26.6 °F 38% 30.34 in 10.0 mi WNW 5.8 mph - N/A   Clear
10:35 PM 51.8 °F - 26.6 °F 38% 30.33 in 10.0 mi WNW 4.6 mph - N/A   Clear
10:55 PM 51.8 °F - 26.6 °F 38% 30.34 in 10.0 mi WNW 3.5 mph - N/A   Clear
11:15 PM 51.8 °F - 26.6 °F 38% 30.33 in 10.0 mi Calm Calm - N/A   Clear
11:35 PM 46.4 °F 45.2 °F 24.8 °F 43% 30.33 in 10.0 mi South 3.5 mph - N/A   Clear
11:55 PM 46.4 °F 44.3 °F 24.8 °F 43% 30.33 in 10.0 mi SSE 4.6 mph - N/A   Clear